M I D A S
Marine Information and Data Acquisition System
Tripno 1397 of the Zeeleeuw from 2007-08-06 07:02:02 to 2007-08-06 13:38:20
Back to CruiseResearch ActivitiesStationsMapUnderway DataData graphs

EquipmentUnitsComment
TimeDGPSUTC
LatitudeDGPSDM.mWGS84
LongitudeDGPSDM.mWGS84
HeadingGyrodeg 
SOGDGPSknotsSpeed over ground
COGDGPSdegCourse over ground
DepthEcho soundermeters200 kHz
Missing or incorrect values are displayed as -999
Navigation data collected by the RV Zeeleeuw from 2007-08-06 06:42:22 to 2007-08-06 13:51:07
Time Latitude Longitude Heading SOG COG Depth
2007-08-06 06:43:27 51°13.615 2°56.03 119.5 4 297 -999
2007-08-06 06:44:27 51°13.659 2°55.917 126.5 5.6 304 -999
2007-08-06 06:45:27 51°13.693 2°55.814 105.8 3.8 288 -999
2007-08-06 06:46:27 51°13.697 2°55.739 81.1 1.8 262 14.3
2007-08-06 06:47:27 51°13.719 2°55.749 20.6 2.9 9 15.7
2007-08-06 06:48:27 51°13.744 2°55.747 345.6 2.8 337 13.6
2007-08-06 06:49:27 51°13.802 2°55.668 322.2 6.3 322 12.7
2007-08-06 06:50:27 51°13.911 2°55.583 339.3 7.7 335 13.5
2007-08-06 06:51:27 51°14.029 2°55.497 339.9 7.9 336 12.8
2007-08-06 06:52:27 51°14.147 2°55.405 335.5 7.8 331 12.9
2007-08-06 06:53:27 51°14.25 2°55.275 319.3 8.7 315 -999
2007-08-06 06:54:27 51°14.357 2°55.073 313.3 10.8 309 12.9
2007-08-06 06:55:27 51°14.433 2°54.821 287.9 10.8 285 13.1
2007-08-06 06:56:27 51°14.456 2°54.533 272.2 11.1 266 13
2007-08-06 06:57:27 51°14.415 2°54.241 255.4 11.4 243 11.5
2007-08-06 06:58:27 51°14.306 2°53.99 238.1 11.6 236 11.4
2007-08-06 06:59:27 51°14.195 2°53.739 238.3 11.6 235 11.5
2007-08-06 07:00:27 51°14.093 2°53.48 243 11.6 239 11.6
2007-08-06 07:01:27 51°13.993 2°53.221 242.5 11.4 239 11.8
2007-08-06 07:02:27 51°13.895 2°52.958 243.1 11.6 239 12.1
2007-08-06 07:03:27 51°13.796 2°52.693 243 11.6 239 12.2
2007-08-06 07:04:27 51°13.698 2°52.432 243.4 11.4 240 12.5
2007-08-06 07:05:27 51°13.601 2°52.172 243.3 11.4 239 12.3
2007-08-06 07:06:27 51°13.504 2°51.91 243.1 11.6 239 12.5
2007-08-06 07:07:27 51°13.404 2°51.649 242.3 11.5 236 12.4
2007-08-06 07:08:27 51°13.285 2°51.413 236.1 11.4 232 12.4
2007-08-06 07:09:27 51°13.174 2°51.17 239.3 11.4 235 12.2
2007-08-06 07:10:27 51°13.066 2°50.924 239.6 11.3 235 12.2
2007-08-06 07:11:27 51°12.96 2°50.675 240.2 11.4 238 12.2
2007-08-06 07:12:27 51°12.858 2°50.42 240.2 11.5 238 12.1
2007-08-06 07:13:27 51°12.758 2°50.162 241.3 11.4 238 12.1
2007-08-06 07:14:27 51°12.656 2°49.902 240.4 11.6 239 12
2007-08-06 07:15:27 51°12.557 2°49.641 241.2 11.5 240 12
2007-08-06 07:16:27 51°12.459 2°49.378 241.5 11.5 239 12
2007-08-06 07:17:27 51°12.364 2°49.113 243 11.5 241 11.9
2007-08-06 07:18:27 51°12.273 2°48.845 242.9 11.5 241 12
2007-08-06 07:19:27 51°12.18 2°48.574 242.1 11.7 241 12
2007-08-06 07:20:27 51°12.088 2°48.3 243.3 11.8 242 12
2007-08-06 07:21:27 51°11.996 2°48.024 243.4 11.8 243 11.9
2007-08-06 07:22:27 51°11.904 2°47.746 243.7 11.8 242 11.9
2007-08-06 07:23:27 51°11.813 2°47.467 243.2 11.9 243 11.8
2007-08-06 07:24:27 51°11.727 2°47.184 247.1 11.9 246 11.6
2007-08-06 07:25:27 51°11.647 2°46.897 246.2 11.9 246 11.6
2007-08-06 07:26:27 51°11.565 2°46.608 246.7 12 247 11.6
2007-08-06 07:27:27 51°11.486 2°46.318 246.8 12 247 11.8
2007-08-06 07:28:27 51°11.406 2°46.028 246 12 246 11.9
2007-08-06 07:29:27 51°11.327 2°45.737 245.9 12 246 11.8
2007-08-06 07:30:27 51°11.258 2°45.44 250 11.9 250 11.9
2007-08-06 07:31:27 51°11.189 2°45.143 249.2 12 250 11.9
2007-08-06 07:32:27 51°11.121 2°44.844 249.6 12 250 12
2007-08-06 07:33:27 51°11.053 2°44.543 249.5 12.1 249 12
2007-08-06 07:34:27 51°10.983 2°44.244 249.9 12.1 251 11.9
2007-08-06 07:35:27 51°10.914 2°43.945 248.3 12 250 11.9
2007-08-06 07:36:27 51°10.846 2°43.644 248.4 12 249 12
2007-08-06 07:37:27 51°10.779 2°43.343 249.6 12.1 250 11.9
2007-08-06 07:38:27 51°10.71 2°43.042 248.6 12.1 250 11.8
2007-08-06 07:39:27 51°10.655 2°42.736 253.5 12 254 11.9
2007-08-06 07:40:27 51°10.601 2°42.432 254 11.9 255 12.1
2007-08-06 07:41:27 51°10.547 2°42.126 253.5 12 254 12.3
2007-08-06 07:42:27 51°10.494 2°41.819 253.6 12 254 12.4
2007-08-06 07:43:27 51°10.44 2°41.513 253.5 12 254 12.7
2007-08-06 07:44:27 51°10.386 2°41.208 252.5 12 254 12.6
2007-08-06 07:45:27 51°10.333 2°40.901 253.2 12.1 255 12.7
2007-08-06 07:46:27 51°10.279 2°40.591 253.5 12.2 254 12.9
2007-08-06 07:47:27 51°10.223 2°40.279 253.3 12.3 254 13
2007-08-06 07:48:27 51°10.166 2°39.966 253.3 12.3 254 13.3
2007-08-06 07:49:27 51°10.11 2°39.652 252.6 12.3 254 13.6
2007-08-06 07:50:27 51°10.063 2°39.371 257.4 8.1 260 14
2007-08-06 07:51:27 51°10.061 2°39.228 278.7 4 284 14.6
2007-08-06 07:52:27 51°10.087 2°39.12 287.9 5.1 291 15.2
2007-08-06 07:53:27 51°10.126 2°38.963 286.2 8.3 287 15.9
2007-08-06 07:54:27 51°10.168 2°38.729 285.5 9.6 290 16.5
2007-08-06 07:55:27 51°10.233 2°38.495 294.6 9.7 294 17
2007-08-06 07:56:27 51°10.265 2°38.25 271.5 9.5 275 17.4
2007-08-06 07:57:27 51°10.278 2°38.045 270.7 5.5 272 17.9
2007-08-06 07:58:27 51°10.275 2°37.937 258.2 3.2 261 18.3
2007-08-06 07:59:27 51°10.273 2°37.862 272.4 3 283 18.6
2007-08-06 08:00:27 51°10.311 2°37.806 333.8 3.7 351 18.9
2007-08-06 08:01:27 51°10.367 2°37.856 52.2 4.2 58 19.1
2007-08-06 08:02:27 51°10.368 2°37.959 123.6 3.8 117 18.7
2007-08-06 08:03:27 51°10.318 2°38.003 191.8 3.4 190 18.3
2007-08-06 08:04:27 51°10.293 2°37.934 269.6 3.5 281 18.3
2007-08-06 08:05:27 51°10.348 2°37.892 358.7 4.6 13 18.7
2007-08-06 08:06:27 51°10.394 2°37.982 83.2 4 78 18.8
2007-08-06 08:07:27 51°10.393 2°38.064 115.7 2.6 96 18.6
2007-08-06 08:08:27 51°10.388 2°38.124 125.8 2 100 18.5
2007-08-06 08:09:27 51°10.382 2°38.17 139.7 1.6 104 18.2
2007-08-06 08:10:27 51°10.376 2°38.206 156.1 1.2 102 18
2007-08-06 08:11:27 51°10.373 2°38.234 169.2 1.1 93 17.7
2007-08-06 08:12:27 51°10.372 2°38.259 179.2 0.9 87 17.7
2007-08-06 08:13:27 51°10.374 2°38.283 183.7 0.9 79 17.6
2007-08-06 08:14:27 51°10.378 2°38.309 181.7 1 77 17.5
2007-08-06 08:15:27 51°10.383 2°38.336 180.4 1.1 71 17.5
2007-08-06 08:16:27 51°10.388 2°38.364 180.7 1.2 73 17.5
2007-08-06 08:17:27 51°10.394 2°38.391 178.5 1.1 72 17.5
2007-08-06 08:18:27 51°10.398 2°38.419 174.8 1.1 75 17.5
2007-08-06 08:19:27 51°10.403 2°38.448 171.8 1.1 74 17.3
2007-08-06 08:20:27 51°10.407 2°38.477 169.4 1.2 76 17.3
2007-08-06 08:21:27 51°10.413 2°38.508 165.8 1.2 74 17.4
2007-08-06 08:22:27 51°10.418 2°38.537 166.7 1.1 73 -999
2007-08-06 08:23:27 51°10.423 2°38.565 170.5 1.1 70 4.9
2007-08-06 08:24:27 51°10.43 2°38.592 170.5 1.1 67 17.3
2007-08-06 08:25:27 51°10.437 2°38.618 166.5 1 68 17
2007-08-06 08:26:27 51°10.444 2°38.643 164.4 1 63 17.1
2007-08-06 08:27:27 51°10.452 2°38.667 163.7 1 65 17
2007-08-06 08:28:27 51°10.459 2°38.692 162 1 63 16.9
2007-08-06 08:29:27 51°10.466 2°38.717 164.7 1 65 16.8
2007-08-06 08:30:27 51°10.473 2°38.74 170.5 0.9 66 16.7
2007-08-06 08:31:27 51°10.479 2°38.761 171.3 0.8 65 16.6
2007-08-06 08:32:27 51°10.485 2°38.782 170.6 0.9 67 16.6
2007-08-06 08:33:27 51°10.486 2°38.802 171.7 1.3 144 16.7
2007-08-06 08:34:27 51°10.452 2°38.77 242.1 3.4 246 16.6
2007-08-06 08:35:27 51°10.477 2°38.688 323.8 3.8 335 16.8
2007-08-06 08:36:27 51°10.54 2°38.722 50.2 4.5 52 17.3
2007-08-06 08:37:27 51°10.532 2°38.827 134.6 4.2 134 16.8
2007-08-06 08:38:27 51°10.472 2°38.834 213.4 3.8 215 16.4
2007-08-06 08:39:27 51°10.464 2°38.739 294.4 4.7 305 16.6
2007-08-06 08:40:27 51°10.562 2°38.717 20.1 7.3 24 17.4
2007-08-06 08:41:27 51°10.613 2°38.842 90.5 4.4 88 17.5
2007-08-06 08:42:27 51°10.598 2°38.922 131.3 2.4 117 17.1
2007-08-06 08:43:27 51°10.582 2°38.967 140 1.7 121 16.6
2007-08-06 08:44:27 51°10.571 2°38.999 143.7 1.2 114 16.5
2007-08-06 08:45:27 51°10.563 2°39.024 147.8 1 115 16.4
2007-08-06 08:46:27 51°10.557 2°39.046 153.8 0.8 111 16.2
2007-08-06 08:47:27 51°10.553 2°39.064 159 0.6 108 16.1
2007-08-06 08:48:27 51°10.55 2°39.078 168.5 0.4 106 15.9
2007-08-06 08:49:27 51°10.548 2°39.09 175 0.7 143 16
2007-08-06 08:50:27 51°10.516 2°39.061 235.9 3.3 242 16
2007-08-06 08:51:27 51°10.525 2°38.964 297.9 3.9 301 16.2
2007-08-06 08:52:27 51°10.565 2°38.901 322.4 3.1 329 16.7
2007-08-06 08:53:27 51°10.606 2°38.875 337.1 2.5 342 16.9
2007-08-06 08:54:27 51°10.65 2°38.862 354 2.7 3 17.4
2007-08-06 08:55:27 51°10.692 2°38.889 34.9 2.9 36 17.7
2007-08-06 08:56:27 51°10.727 2°38.944 55.8 3 51 17.7
2007-08-06 08:57:27 51°10.758 2°39.008 52.7 3.1 51 17.6
2007-08-06 08:58:27 51°10.791 2°39.067 50.5 2.8 48 17.6
2007-08-06 08:59:27 51°10.822 2°39.12 49.9 2.7 47 17.6
2007-08-06 09:00:27 51°10.851 2°39.175 52.2 2.7 51 17.5
2007-08-06 09:01:27 51°10.879 2°39.233 56.2 2.8 55 17.5
2007-08-06 09:02:27 51°10.903 2°39.296 60.4 2.8 59 17.5
2007-08-06 09:03:27 51°10.926 2°39.361 63.3 2.7 63 17.4
2007-08-06 09:04:27 51°10.944 2°39.419 62.9 2.3 63 17.3
2007-08-06 09:05:27 51°10.961 2°39.47 62.4 2.2 63 17.2
2007-08-06 09:06:27 51°10.978 2°39.527 63.1 2.5 64 17.2
2007-08-06 09:07:27 51°10.998 2°39.587 59.5 2.7 59 17.1
2007-08-06 09:08:27 51°11.023 2°39.653 58.3 3 59 16.9
2007-08-06 09:09:27 51°11.049 2°39.716 57 2.7 55 16.8
2007-08-06 09:10:27 51°11.075 2°39.774 53.8 2.6 53 16.8
2007-08-06 09:11:27 51°11.101 2°39.828 50.8 2.6 52 16.7
2007-08-06 09:12:27 51°11.128 2°39.88 47.4 2.6 48 16.6
2007-08-06 09:13:27 51°11.158 2°39.929 44.1 2.5 45 16.6
2007-08-06 09:14:27 51°11.19 2°39.974 38.4 2.5 38 16.5
2007-08-06 09:15:27 51°11.225 2°40.012 32.8 2.6 32 16.4
2007-08-06 09:16:27 51°11.261 2°40.044 26.7 2.5 26 16.2
2007-08-06 09:17:27 51°11.297 2°40.075 32 2.5 32 15.9
2007-08-06 09:18:27 51°11.325 2°40.119 55.8 2.4 55 15.8
2007-08-06 09:19:27 51°11.345 2°40.184 71.8 3.1 70 15.7
2007-08-06 09:20:27 51°11.36 2°40.274 85.5 3.7 86 15.8
2007-08-06 09:21:27 51°11.344 2°40.367 117.5 3.7 119 16.1
2007-08-06 09:22:27 51°11.301 2°40.432 147 3.4 150 15.4
2007-08-06 09:23:27 51°11.253 2°40.459 167.3 2.9 170 15
2007-08-06 09:24:27 51°11.208 2°40.455 192.3 2.5 192 14.5
2007-08-06 09:25:27 51°11.177 2°40.442 198 1.6 193 14.5
2007-08-06 09:26:27 51°11.157 2°40.438 193.2 1 183 14.7
2007-08-06 09:27:27 51°11.144 2°40.442 186.9 0.7 158 14.6
2007-08-06 09:28:27 51°11.136 2°40.448 180.7 0.9 159 14.5
2007-08-06 09:29:27 51°11.093 2°40.454 179.5 4.4 178 14.2
2007-08-06 09:30:27 51°10.998 2°40.459 180.1 6.3 180 13.5
2007-08-06 09:31:27 51°10.891 2°40.433 195.4 6.6 195 13.2
2007-08-06 09:32:27 51°10.783 2°40.388 193.7 6.7 194 13.3
2007-08-06 09:33:27 51°10.682 2°40.34 203.3 5.6 207 13.3
2007-08-06 09:34:27 51°10.629 2°40.25 242.3 4 244 13.5
2007-08-06 09:35:27 51°10.611 2°40.165 254.7 3.1 256 13.6
2007-08-06 09:36:27 51°10.601 2°40.09 259.1 2.7 261 13.6
2007-08-06 09:37:27 51°10.593 2°40.016 260.3 3.5 261 13.8
2007-08-06 09:38:27 51°10.582 2°39.905 260.5 4.7 260 14
2007-08-06 09:39:27 51°10.567 2°39.777 259.8 4.7 259 14.3
2007-08-06 09:40:27 51°10.552 2°39.671 256 3.4 256 14.4
2007-08-06 09:41:27 51°10.539 2°39.604 244.4 2.2 247 14.5
2007-08-06 09:42:27 51°10.524 2°39.566 229 1.4 232 14.5
2007-08-06 09:43:27 51°10.513 2°39.545 221.2 0.8 227 14.5
2007-08-06 09:44:27 51°10.506 2°39.535 215 0.3 225 14.5
2007-08-06 09:45:27 51°10.503 2°39.532 201.5 0.1 122 14.4
2007-08-06 09:46:27 51°10.487 2°39.529 191 2.9 196 14.5
2007-08-06 09:47:27 51°10.443 2°39.457 245.2 4.4 250 14.4
2007-08-06 09:48:27 51°10.447 2°39.344 290.3 3.8 288 14.6
2007-08-06 09:49:27 51°10.467 2°39.263 294.4 2.8 292 15
2007-08-06 09:50:27 51°10.484 2°39.202 292 2.4 293 15.2
2007-08-06 09:51:27 51°10.498 2°39.15 291.4 2 292 15.2
2007-08-06 09:52:27 51°10.513 2°39.101 301.2 2.4 301 15.1
2007-08-06 09:53:27 51°10.548 2°39.053 341.8 3.1 336 15.3
2007-08-06 09:54:27 51°10.601 2°39.052 23.4 3.4 18 15.6
2007-08-06 09:55:27 51°10.646 2°39.102 54.3 3.3 48 15.9
2007-08-06 09:56:27 51°10.664 2°39.176 87.3 2.9 86 15.7
2007-08-06 09:57:27 51°10.652 2°39.247 121 2.7 122 15.2
2007-08-06 09:58:27 51°10.618 2°39.291 149.4 2.7 153 14.9
2007-08-06 09:59:27 51°10.574 2°39.312 167.7 2.7 173 14.8
2007-08-06 10:00:27 51°10.527 2°39.309 182.9 2.9 186 14.8
2007-08-06 10:01:27 51°10.477 2°39.289 192 3.3 198 14.8
2007-08-06 10:02:27 51°10.424 2°39.253 202.1 3.9 208 14.6
2007-08-06 10:03:27 51°10.366 2°39.19 213 4.4 216 14.5
2007-08-06 10:04:27 51°10.315 2°39.124 216.2 3.4 221 14.8
2007-08-06 10:05:27 51°10.277 2°39.066 219.8 3.1 225 14.6
2007-08-06 10:06:27 51°10.242 2°39.004 226.5 3.2 230 14.5
2007-08-06 10:07:27 51°10.209 2°38.935 233 3.3 234 14.8
2007-08-06 10:08:27 51°10.179 2°38.86 238 3.4 239 14.5
2007-08-06 10:09:27 51°10.15 2°38.781 239.9 3.5 240 14.7
2007-08-06 10:10:27 51°10.119 2°38.702 235.8 3.5 238 14.6
2007-08-06 10:11:27 51°10.089 2°38.621 240.1 3.6 240 14.6
2007-08-06 10:12:27 51°10.06 2°38.537 240.9 3.6 242 14.8
2007-08-06 10:13:27 51°10.031 2°38.453 240.2 3.6 240 14.9
2007-08-06 10:14:27 51°10 2°38.37 239.2 3.7 240 14.8
2007-08-06 10:15:27 51°9.969 2°38.286 238.2 3.6 239 14.9
2007-08-06 10:16:27 51°9.937 2°38.203 239.1 3.6 240 15
2007-08-06 10:17:27 51°9.906 2°38.12 239.6 3.7 240 15.1
2007-08-06 10:18:27 51°9.876 2°38.035 240.8 3.6 241 14.9
2007-08-06 10:19:27 51°9.847 2°37.95 239.5 3.7 240 15.1
2007-08-06 10:20:27 51°9.817 2°37.865 237.8 3.7 240 15.1
2007-08-06 10:21:27 51°9.784 2°37.781 236.1 3.7 238 15.3
2007-08-06 10:22:27 51°9.751 2°37.699 233.7 3.7 236 14.8
2007-08-06 10:23:27 51°9.715 2°37.619 231.5 3.7 234 14.8
2007-08-06 10:24:27 51°9.686 2°37.534 252.2 3.6 252 15
2007-08-06 10:25:27 51°9.687 2°37.445 295.5 3.2 287 15
2007-08-06 10:26:27 51°9.714 2°37.372 326 3 313 15.4
2007-08-06 10:27:27 51°9.747 2°37.335 356.7 2.1 333 15.5
2007-08-06 10:28:27 51°9.772 2°37.317 5.1 1.4 332 15.6
2007-08-06 10:29:27 51°9.789 2°37.296 351.6 1.2 312 15.7
2007-08-06 10:30:27 51°9.799 2°37.271 338.3 1.1 292 15.7
2007-08-06 10:31:27 51°9.804 2°37.246 330.7 1 282 15.7
2007-08-06 10:32:27 51°9.806 2°37.223 325.1 0.8 277 15.8
2007-08-06 10:33:27 51°9.807 2°37.205 323.7 0.6 272 15.8
2007-08-06 10:34:27 51°9.806 2°37.189 327.3 0.6 265 16
2007-08-06 10:35:27 51°9.806 2°37.174 334.1 0.7 284 15.8
2007-08-06 10:36:27 51°9.815 2°37.149 336.5 1.4 306 15.9
2007-08-06 10:37:27 51°9.879 2°37.068 332.9 8.7 325 16.1
2007-08-06 10:38:27 51°10.033 2°36.909 333.3 12.6 327 16.5
2007-08-06 10:39:27 51°10.216 2°36.725 333.8 13.1 329 16.5
2007-08-06 10:40:27 51°10.412 2°36.592 346.7 12.5 341 9.8
2007-08-06 10:41:27 51°10.613 2°36.56 6.3 12.4 3 8.5
2007-08-06 10:42:27 51°10.811 2°36.638 20.9 12.3 21 10.1
2007-08-06 10:43:27 51°10.991 2°36.786 30.4 12.2 24 11.1
2007-08-06 10:44:27 51°11.178 2°36.909 28.8 12.2 26 11.8
2007-08-06 10:45:27 51°11.359 2°37.051 29.7 12.1 26 12.4
2007-08-06 10:46:27 51°11.538 2°37.191 30.3 12 27 12.4
2007-08-06 10:47:27 51°11.719 2°37.329 30.2 12.1 25 12.4
2007-08-06 10:48:27 51°11.902 2°37.464 29 12.1 24 12.2
2007-08-06 10:49:27 51°12.084 2°37.597 30.5 12 25 11.8
2007-08-06 10:50:27 51°12.265 2°37.735 29.3 12.1 24 11.6
2007-08-06 10:51:27 51°12.447 2°37.869 29.8 12 24 11.6
2007-08-06 10:52:27 51°12.63 2°38.001 29.1 12.1 25 11.9
2007-08-06 10:53:27 51°12.813 2°38.132 28.8 12.1 24 12
2007-08-06 10:54:27 51°12.996 2°38.263 29.1 12.1 23 12.5
2007-08-06 10:55:27 51°13.181 2°38.393 28.2 12.2 23 12.9
2007-08-06 10:56:27 51°13.366 2°38.524 29.9 12.2 25 13.2
2007-08-06 10:57:27 51°13.551 2°38.658 30 12.2 24 13.4
2007-08-06 10:58:27 51°13.742 2°38.769 20.1 12.2 13 13
2007-08-06 10:59:27 51°13.942 2°38.811 2.9 12.3 354 11.6
2007-08-06 11:00:27 51°14.146 2°38.732 354 12.8 350 12.3
2007-08-06 11:01:27 51°14.356 2°38.687 1.2 12.7 354 16.1
2007-08-06 11:02:27 51°14.565 2°38.654 1.3 12.5 355 15.9
2007-08-06 11:03:27 51°14.772 2°38.624 1 12.6 354 15.7
2007-08-06 11:04:27 51°14.98 2°38.593 1.4 12.5 354 15.9
2007-08-06 11:05:27 51°15.187 2°38.561 0.7 12.4 354 15.4
2007-08-06 11:06:27 51°15.393 2°38.527 1.5 12.5 353 13.9
2007-08-06 11:07:27 51°15.6 2°38.491 1.4 12.5 355 12
2007-08-06 11:08:27 51°15.805 2°38.455 1 12.4 354 10.8
2007-08-06 11:09:27 51°16.011 2°38.418 0.9 12.5 353 9.8
2007-08-06 11:10:27 51°16.217 2°38.381 3.1 12.4 354 8.6
2007-08-06 11:11:27 51°16.422 2°38.337 2.1 12.5 353 7.7
2007-08-06 11:12:27 51°16.631 2°38.3 359.6 12.7 350 7.7
2007-08-06 11:13:27 51°16.847 2°38.252 1.6 13.1 356 18.8
2007-08-06 11:14:27 51°17.058 2°38.222 1.9 12.6 355 24.3
2007-08-06 11:15:27 51°17.265 2°38.187 0.3 12.4 355 25.3
2007-08-06 11:16:27 51°17.471 2°38.148 1.8 12.4 353 25.7
2007-08-06 11:17:27 51°17.678 2°38.108 1.1 12.5 354 25.6
2007-08-06 11:18:27 51°17.876 2°38.067 -999 10.2 351 25.8
2007-08-06 11:19:27 51°18.015 2°38.033 2.1 6.8 351 24.9
2007-08-06 11:20:27 51°18.1 2°38.022 16.5 3.9 2 25.4
2007-08-06 11:21:27 51°18.149 2°38.034 33 2.3 14 24.9
2007-08-06 11:22:27 51°18.18 2°38.047 34.4 1.7 11 25.5
2007-08-06 11:23:27 51°18.203 2°38.049 26.4 1.3 355 25.3
2007-08-06 11:24:27 51°18.222 2°38.042 15.2 1.1 338 24.7
2007-08-06 11:25:27 51°18.236 2°38.028 4.7 0.9 322 24.8
2007-08-06 11:26:27 51°18.245 2°38.012 355.8 0.8 299 24.5
2007-08-06 11:27:27 51°18.25 2°37.993 342.6 0.7 287 24.3
2007-08-06 11:28:27 51°18.252 2°37.975 334.6 0.6 273 24.7
2007-08-06 11:29:27 51°18.254 2°37.959 333 1.2 312 24.5
2007-08-06 11:30:27 51°18.291 2°37.946 27.8 2.2 15 24.7
2007-08-06 11:31:27 51°18.308 2°37.986 84.9 2 92 24.8
2007-08-06 11:32:27 51°18.285 2°38.035 134.4 2.9 149 24.9
2007-08-06 11:33:27 51°18.229 2°38.057 166.8 3.7 177 24.6
2007-08-06 11:34:27 51°18.176 2°38.048 181.1 2.8 190 25.5
2007-08-06 11:35:27 51°18.13 2°38.032 184.6 2.9 193 25.1
2007-08-06 11:36:27 51°18.08 2°38.01 188.5 3.5 195 25
2007-08-06 11:37:27 51°18.018 2°37.98 192.3 4 198 25.2
2007-08-06 11:38:27 51°17.953 2°37.945 193.8 4.2 199 23.9
2007-08-06 11:39:27 51°17.892 2°37.909 195.2 3.8 202 25.4
2007-08-06 11:40:27 51°17.828 2°37.87 196.3 4.1 202 25.4
2007-08-06 11:41:27 51°17.765 2°37.827 198.1 4.1 203 26
2007-08-06 11:42:27 51°17.707 2°37.785 199.9 3.8 206 26
2007-08-06 11:43:27 51°17.65 2°37.742 200.1 3.7 205 25.9
2007-08-06 11:44:27 51°17.592 2°37.699 200.1 4 205 26.1
2007-08-06 11:45:27 51°17.53 2°37.652 201.6 4.2 207 26.1
2007-08-06 11:46:27 51°17.468 2°37.602 202 4.2 207 25.9
2007-08-06 11:47:27 51°17.405 2°37.549 202.7 4.1 208 25.7
2007-08-06 11:48:27 51°17.347 2°37.5 204.4 3.9 210 25.8
2007-08-06 11:49:27 51°17.29 2°37.444 206.1 4.2 211 25.8
2007-08-06 11:50:27 51°17.228 2°37.387 204.4 4.4 209 25.6
2007-08-06 11:51:27 51°17.165 2°37.333 203.7 4.2 210 25.7
2007-08-06 11:52:27 51°17.106 2°37.282 201.7 4 207 25.8
2007-08-06 11:53:27 51°17.049 2°37.234 203.5 3.9 210 26.2
2007-08-06 11:54:27 51°16.993 2°37.18 207.6 3.9 212 27.2
2007-08-06 11:55:27 51°16.938 2°37.121 210.7 4 215 27
2007-08-06 11:56:27 51°16.884 2°37.057 215.3 4 218 26.7
2007-08-06 11:57:27 51°16.832 2°36.989 217.8 4.1 220 26.3
2007-08-06 11:58:27 51°16.779 2°36.92 217.6 4.1 220 25.5
2007-08-06 11:59:27 51°16.725 2°36.848 219.3 4.2 220 25.2
2007-08-06 12:00:27 51°16.672 2°36.775 219.8 4.2 221 25.2
2007-08-06 12:01:27 51°16.619 2°36.702 219.1 4.2 219 25
2007-08-06 12:02:27 51°16.565 2°36.627 221.9 4.3 222 25.7
2007-08-06 12:03:27 51°16.513 2°36.549 226.5 4.2 226 25.6
2007-08-06 12:04:27 51°16.464 2°36.468 230.1 4.2 229 25.8
2007-08-06 12:05:27 51°16.42 2°36.381 235.7 4.2 234 26.3
2007-08-06 12:06:27 51°16.378 2°36.29 239.7 4.2 235 26.9
2007-08-06 12:07:27 51°16.337 2°36.201 232.9 4.2 230 27
2007-08-06 12:08:27 51°16.29 2°36.119 229.1 4.2 227 25.5
2007-08-06 12:09:27 51°16.241 2°36.039 226.3 4.2 225 25.8
2007-08-06 12:10:27 51°16.19 2°35.962 224 4.2 224 25.6
2007-08-06 12:11:27 51°16.137 2°35.887 222.8 4.3 221 25.9
2007-08-06 12:12:27 51°16.084 2°35.817 218.5 4.1 218 25.6
2007-08-06 12:13:27 51°16.03 2°35.748 219.9 4.2 220 25.8
2007-08-06 12:14:27 51°15.976 2°35.678 219.9 4.2 219 25.6
2007-08-06 12:15:27 51°15.922 2°35.608 218.5 4.2 218 25.8
2007-08-06 12:16:27 51°15.867 2°35.538 221.3 4.2 221 25.4
2007-08-06 12:17:27 51°15.824 2°35.447 250.4 4.4 244 25.5
2007-08-06 12:18:27 51°15.812 2°35.337 291.7 4.1 276 25.6
2007-08-06 12:19:27 51°15.84 2°35.251 337 3.4 316 25.1
2007-08-06 12:20:27 51°15.886 2°35.222 15 2.4 355 25.4
2007-08-06 12:21:27 51°15.912 2°35.221 22.1 1.2 350 25.3
2007-08-06 12:22:27 51°15.924 2°35.207 10.2 0.9 311 25.2
2007-08-06 12:23:27 51°15.929 2°35.185 359.5 1 273 25.2
2007-08-06 12:24:27 51°15.926 2°35.16 349.4 1 254 25.1
2007-08-06 12:25:27 51°15.919 2°35.135 344.4 1 244 25.2
2007-08-06 12:26:27 51°15.911 2°35.113 339.6 1 234 25.2
2007-08-06 12:27:27 51°15.9 2°35.09 336.9 1 233 25.2
2007-08-06 12:28:27 51°15.89 2°35.07 340.3 1 229 25.1
2007-08-06 12:29:27 51°15.879 2°35.05 344.2 1 234 25.1
2007-08-06 12:30:27 51°15.891 2°35.027 10.6 1.9 351 25.3
2007-08-06 12:31:27 51°15.903 2°35.088 90.4 4.6 107 25.1
2007-08-06 12:32:27 51°15.836 2°35.266 110.5 10.2 115 25.1
2007-08-06 12:33:27 51°15.76 2°35.55 108.8 12.2 113 25.5
2007-08-06 12:34:27 51°15.682 2°35.849 108.1 12.3 112 25.4
2007-08-06 12:35:27 51°15.605 2°36.152 108.6 12.3 111 22.1
2007-08-06 12:36:27 51°15.532 2°36.458 108.1 12.4 111 15.9
2007-08-06 12:37:27 51°15.462 2°36.763 109.6 12.1 110 12.5
2007-08-06 12:38:27 51°15.379 2°37.053 113.6 12.4 115 13.2
2007-08-06 12:39:27 51°15.292 2°37.342 113 12.1 116 11.2
2007-08-06 12:40:27 51°15.203 2°37.621 113.1 11.7 115 10.2
2007-08-06 12:41:27 51°15.116 2°37.901 114.3 12 118 9.6
2007-08-06 12:42:27 51°15.024 2°38.186 112.1 12.2 118 13
2007-08-06 12:43:27 51°14.93 2°38.472 112.1 12.3 117 15.5
2007-08-06 12:44:27 51°14.836 2°38.762 112.7 12.3 118 16.5
2007-08-06 12:45:27 51°14.746 2°39.055 113.8 12.4 115 15.7
2007-08-06 12:46:27 51°14.656 2°39.353 112.9 12.5 116 15.5
2007-08-06 12:47:27 51°14.567 2°39.651 113.2 12.4 114 13.5
2007-08-06 12:48:27 51°14.478 2°39.949 113.9 12.5 115 12.4
2007-08-06 12:49:27 51°14.42 2°40.258 100.4 12.2 100 12.5
2007-08-06 12:50:27 51°14.382 2°40.576 99.7 12.2 99 12.9
2007-08-06 12:51:27 51°14.36 2°40.893 91.6 12 89 13.1
2007-08-06 12:52:27 51°14.372 2°41.208 87.3 11.9 86 14
2007-08-06 12:53:27 51°14.384 2°41.522 86.9 11.8 86 13.4
2007-08-06 12:54:27 51°14.394 2°41.834 87.6 11.8 87 15.1
2007-08-06 12:55:27 51°14.402 2°42.145 87.8 11.7 88 16.4
2007-08-06 12:56:27 51°14.411 2°42.458 88.5 11.7 88 16.6
2007-08-06 12:57:27 51°14.415 2°42.765 87.8 11.6 88 16.6
2007-08-06 12:58:27 51°14.424 2°43.071 87.5 11.6 88 16.4
2007-08-06 12:59:27 51°14.431 2°43.379 88.8 11.6 90 15.8
2007-08-06 13:00:27 51°14.437 2°43.687 88.4 11.6 86 15.4
2007-08-06 13:01:27 51°14.46 2°43.991 84.1 11.7 83 14.7
2007-08-06 13:02:27 51°14.487 2°44.3 83.9 11.7 84 13.7
2007-08-06 13:03:27 51°14.509 2°44.606 84.1 11.8 83 12.8
2007-08-06 13:04:27 51°14.532 2°44.915 85.6 11.6 84 11.3
2007-08-06 13:05:27 51°14.552 2°45.225 86.1 11.7 83 9.8
2007-08-06 13:06:27 51°14.584 2°45.532 84.1 11.8 82 8.5
2007-08-06 13:07:27 51°14.603 2°45.844 85.9 11.9 85 8.1
2007-08-06 13:08:27 51°14.634 2°46.16 84.8 12.1 84 9
2007-08-06 13:09:27 51°14.659 2°46.478 83.9 12.1 82 11
2007-08-06 13:10:27 51°14.684 2°46.794 84.8 12 83 12.3
2007-08-06 13:11:27 51°14.712 2°47.106 84.2 11.9 83 12.6
2007-08-06 13:12:27 51°14.739 2°47.417 83 11.8 82 12.3
2007-08-06 13:13:27 51°14.764 2°47.728 83.4 11.8 82 12
2007-08-06 13:14:27 51°14.789 2°48.039 83.4 11.9 82 11.7
2007-08-06 13:15:27 51°14.812 2°48.351 85 11.9 85 11.6
2007-08-06 13:16:27 51°14.835 2°48.663 84.1 11.9 84 12
2007-08-06 13:17:27 51°14.857 2°48.975 85.1 11.8 84 12.3
2007-08-06 13:18:27 51°14.878 2°49.286 83.9 11.8 84 12.2
2007-08-06 13:19:27 51°14.898 2°49.598 85.1 11.7 85 12.1
2007-08-06 13:20:27 51°14.918 2°49.908 84.2 11.9 83 12.2
2007-08-06 13:21:27 51°14.939 2°50.22 84.6 11.8 86 12.1
2007-08-06 13:22:27 51°14.956 2°50.532 87 11.8 88 11.9
2007-08-06 13:23:27 51°14.966 2°50.847 86.1 11.8 85 11.7
2007-08-06 13:24:27 51°14.979 2°51.161 85.6 11.9 86 11.5
2007-08-06 13:25:27 51°14.977 2°51.477 90.3 12 91 11.2
2007-08-06 13:26:27 51°14.955 2°51.794 97.2 12.1 98 10.7
2007-08-06 13:27:27 51°14.931 2°52.109 96.5 12 98 10.3
2007-08-06 13:28:27 51°14.9 2°52.426 96.6 12.1 99 9.8
2007-08-06 13:29:27 51°14.872 2°52.744 97.4 12.1 99 9.6
2007-08-06 13:30:27 51°14.843 2°53.063 95.2 12.3 96 10.3
2007-08-06 13:31:27 51°14.804 2°53.387 101.7 12.5 103 10.7
2007-08-06 13:32:27 51°14.751 2°53.704 104.6 12 107 10.3
2007-08-06 13:33:27 51°14.685 2°54.017 107.4 12.5 108 11
2007-08-06 13:34:27 51°14.613 2°54.328 111 12.4 112 10.9
2007-08-06 13:35:27 51°14.533 2°54.631 113 12.3 116 10.5
2007-08-06 13:36:27 51°14.432 2°54.916 121 12.4 125 10.7
2007-08-06 13:37:27 51°14.312 2°55.185 129.6 12.5 129 10.5
2007-08-06 13:38:27 51°14.204 2°55.347 146.8 6.7 147 10.7
2007-08-06 13:39:27 51°14.118 2°55.421 155.9 6.2 154 10.6
2007-08-06 13:40:27 51°14.006 2°55.502 156.7 7.9 156 10.6
2007-08-06 13:41:27 51°13.884 2°55.592 157 7.8 155 10.9
2007-08-06 13:42:27 51°13.792 2°55.668 149 5.3 145 11
2007-08-06 13:43:27 51°13.733 2°55.758 133.2 4.7 131 11.9
2007-08-06 13:44:27 51°13.686 2°55.853 128.5 4.2 126 10.1
2007-08-06 13:45:27 51°13.65 2°55.935 126.6 3.4 124 10.3
2007-08-06 13:46:27 51°13.623 2°56.007 119.7 3 118 10.8
2007-08-06 13:47:27 51°13.607 2°56.068 107.5 1.9 106 8.4
2007-08-06 13:48:27 51°13.603 2°56.093 111 0.4 93 8
2007-08-06 13:49:27 51°13.601 2°56.099 112.2 0.3 134 7.8
2007-08-06 13:50:27 51°13.601 2°56.1 118.7 0.1 7 7.3